Oxford, CT

7:43 AM EDT on May 25, 2018 (GMT -0400)
Waterbury-Oxford

Weather History for KOXC - February, 2013

Change the Weather History Date:

Thursday, February 14, 2013

  Actual Average Record
Temperature  
Mean Temperature 32 °F -  
Max Temperature 41 °F 35 °F 53 °F (2011)
Min Temperature 24 °F 20 °F -11 °F (2016)
Degree Days  
Heating Degree Days 32    
Moisture  
Dew Point 23 °F    
Average Humidity 71    
Maximum Humidity 86    
Minimum Humidity 45    
Precipitation  
Precipitation 0.00 in - - ()
Sea Level Pressure  
Sea Level Pressure 29.85 in    
Wind  
Wind Speed 6 mph (NNW)    
Max Wind Speed 10 mph    
Max Gust Speed 16 mph    
Visibility 9 miles    
Events      
Averages and records for this station are not official NWS values.
T = Trace of Precipitation, MM = Missing Value Source: NWS Daily Summary

Daily Weather History Graph

Daily Weather History Graph

Search for Another Location

Airport or City:

Astronomy

Feb. 14, 2013 Rise Set
Actual Time 6:48 AM EST 5:25 PM EST
Civil Twilight 6:20 AM EST 5:53 PM EST
Nautical Twilight 5:47 AM EST 6:26 PM EST
Astronomical Twilight 5:15 AM EST 6:58 PM EST
Moon 8:45 AM EST (2/14) 10:30 PM EST (2/14)
Length of Visible Light 11h 33m
Length of Day
10h 36m
Waxing Crescent, 21% of the Moon is Illuminated
Feb 14
Waxing Crescent
Feb 17
First Quarter
Feb 25
Full
Mar 4
Last Quarter
Mar 11
New

Hourly Weather History & Observations

Time (EST) Temp. Windchill Dew Point Humidity Pressure Visibility Wind Dir Wind Speed Gust Speed Precip Events Conditions
12:15 AM 30.2 °F 24.3 °F 26.6 °F 86% 29.71 in 1.8 mi NE 5.8 mph - N/A   Overcast
12:35 AM 30.2 °F 21.9 °F 26.6 °F 86% 29.70 in 2.0 mi NE 9.2 mph - N/A   Overcast
12:55 AM 30.2 °F 23.4 °F 26.6 °F 86% 29.70 in 2.0 mi NE 6.9 mph - N/A   Overcast
1:15 AM 30.2 °F 24.3 °F 26.6 °F 86% 29.70 in 2.5 mi ENE 5.8 mph - N/A   Overcast
1:35 AM 30.2 °F 23.4 °F 24.8 °F 80% 29.71 in 5.0 mi NE 6.9 mph - N/A   Overcast
1:55 AM 30.2 °F 24.3 °F 24.8 °F 80% 29.71 in 7.0 mi NNE 5.8 mph - N/A   Overcast
2:15 AM 28.4 °F 22.2 °F 24.8 °F 86% 29.72 in 10.0 mi NNE 5.8 mph - N/A   Overcast
2:35 AM 28.4 °F 21.2 °F 23.0 °F 80% 29.73 in 10.0 mi North 6.9 mph - N/A   Mostly Cloudy
2:55 AM 30.2 °F 24.3 °F 24.8 °F 80% 29.73 in 10.0 mi NNW 5.8 mph - N/A   Overcast
3:15 AM 30.2 °F 24.3 °F 24.8 °F 80% 29.74 in 10.0 mi NNW 5.8 mph - N/A   Overcast
3:35 AM 30.2 °F 24.3 °F 24.8 °F 80% 29.75 in 10.0 mi NNW 5.8 mph - N/A   Overcast
3:55 AM 30.2 °F 23.4 °F 24.8 °F 80% 29.76 in 10.0 mi NNW 6.9 mph - N/A   Overcast
4:15 AM 30.2 °F 22.6 °F 24.8 °F 80% 29.77 in 10.0 mi NNW 8.1 mph - N/A   Overcast
4:35 AM 30.2 °F 24.3 °F 24.8 °F 80% 29.77 in 10.0 mi NNW 5.8 mph - N/A   Partly Cloudy
5:15 AM 26.6 °F 20.0 °F 21.2 °F 80% 29.77 in 10.0 mi NNW 5.8 mph - N/A   Clear
5:35 AM 28.4 °F 22.2 °F 23.0 °F 80% 29.78 in 10.0 mi NNW 5.8 mph - N/A   Partly Cloudy
5:55 AM 26.6 °F 21.2 °F 19.4 °F 74% 29.79 in 10.0 mi NNW 4.6 mph - N/A   Partly Cloudy
6:45 AM 24.8 °F 19.1 °F 19.4 °F 80% 29.81 in 10.0 mi North 4.6 mph - N/A   Clear
7:45 AM 28.4 °F 22.2 °F 23.0 °F 80% 29.86 in 10.0 mi North 5.8 mph - N/A   Clear
8:45 AM 30.2 °F 24.3 °F 19.4 °F 64% 29.88 in 10.0 mi North 5.8 mph - N/A   Clear
9:45 AM 33.8 °F 28.6 °F 19.4 °F 56% 29.91 in 10.0 mi NNW 5.8 mph - N/A   Clear
10:45 AM 35.6 °F 28.0 °F 19.4 °F 52% 29.92 in 10.0 mi NNW 10.4 mph 16.1 mph N/A   Clear
11:55 AM 35.6 °F 29.2 °F 19.4 °F 52% 29.92 in 10.0 mi NNE 8.1 mph - N/A   Clear
12:45 PM 37.4 °F - 21.2 °F 52% 29.91 in 10.0 mi Calm Calm - N/A   Clear
1:45 PM 39.2 °F 34.2 °F 21.2 °F 49% 29.91 in 10.0 mi WSW 6.9 mph - N/A   Clear
2:45 PM 39.2 °F 35.0 °F 19.4 °F 45% 29.92 in 10.0 mi NNW 5.8 mph - N/A   Clear
3:45 PM 41.0 °F 39.0 °F 21.2 °F 45% 29.93 in 10.0 mi Variable 3.5 mph - N/A   Clear
4:45 PM 39.2 °F 35.9 °F 21.2 °F 49% 29.93 in 10.0 mi WSW 4.6 mph - N/A   Clear
5:45 PM 35.6 °F 31.7 °F 19.4 °F 52% 29.96 in 10.0 mi South 4.6 mph - N/A   Clear
6:50 PM 35.6 °F 31.7 °F 21.2 °F 56% 29.96 in 10.0 mi South 4.6 mph - N/A   Clear
7:45 PM 33.8 °F 28.6 °F 21.2 °F 60% 29.97 in 10.0 mi South 5.8 mph - N/A   Clear
9:15 PM 33.8 °F 28.6 °F 24.8 °F 70% 29.98 in 10.0 mi SSW 5.8 mph - N/A   Mostly Cloudy
9:35 PM 33.8 °F 29.6 °F 24.8 °F 70% 29.98 in 10.0 mi SSW 4.6 mph - N/A   Mostly Cloudy
9:55 PM 33.8 °F 29.6 °F 24.8 °F 70% 29.98 in 10.0 mi SW 4.6 mph - N/A   Partly Cloudy
10:15 PM 33.8 °F 29.6 °F 26.6 °F 75% 29.98 in 10.0 mi SSW 4.6 mph - N/A   Clear
10:35 PM 33.8 °F 29.6 °F 26.6 °F 75% 29.98 in 10.0 mi SSW 4.6 mph - N/A   Clear
11:15 PM 33.8 °F 30.8 °F 26.6 °F 75% 29.98 in 7.0 mi SSW 3.5 mph - N/A   Partly Cloudy
11:35 PM 33.8 °F 30.8 °F 26.6 °F 75% 29.98 in 6.0 mi SSW 3.5 mph - N/A   Clear
11:55 PM 33.8 °F 30.8 °F 28.4 °F 81% 29.98 in 5.0 mi SW 3.5 mph - N/A   Clear